Zurück zum Katalog

STARLINK-32815

AktivKommunikationVLEO
NORAD 62956·PAYLOAD·🇺🇸 United States

Gestartet Feb 11, 2025 von Vandenberg Space Force Base

Loading…

Nächste Überflüge (nächste 24 Stunden)

TLE

AktuellSource: CelesTrak SupGP

Epoche: Sep 15, 2026, 03:29 UTC

1 62956C 25029J   26258.14562500 -.00023697  00000+0 -70062-3 0  2586
2 62956  53.1589  66.7254 0001255  87.6758 317.6808 15.34381347    18

Verfolge STARLINK-32815 in Echtzeit mit AllMySat

Download on the App Store